Weather History for KOCQ - March, 2014

Change the Weather History Date:

Thursday, March 13, 2014

  Actual Average Record
Temperature  
Mean Temperature 15 °F -  
Max Temperature 34 °F 37 °F 62 °F (2015)
Min Temperature -4 °F 17 °F -4 °F (2014)
Degree Days  
Heating Degree Days 50    
Moisture  
Dew Point 10 °F    
Average Humidity 72    
Maximum Humidity 88    
Minimum Humidity 53    
Precipitation  
Precipitation 0.00 in - - ()
Sea Level Pressure  
Sea Level Pressure 29.90 in    
Wind  
Wind Speed 3 mph (SSW)    
Max Wind Speed 16 mph    
Max Gust Speed 21 mph    
Visibility 10 miles    
Events      
Averages and records for this station are not official NWS values.
T = Trace of Precipitation, MM = Missing Value Source: NWS Daily Summary

Daily Weather History Graph

Daily Weather History Graph

Search for Another Location

Airport or City:

Trip Planner

Search our weather history database for the weather conditions in past years. The results will help you decide how hot, cold, wet, or windy it might be!

Date:

Astronomy

Mar. 13, 2014 Rise Set
Actual Time 7:07 AM CDT 6:55 PM CDT
Civil Twilight 6:38 AM CDT 7:24 PM CDT
Nautical Twilight 6:04 AM CDT 7:58 PM CDT
Astronomical Twilight 5:30 AM CDT 8:33 PM CDT
Moon 4:15 PM CDT (3/13) 5:20 AM CDT (3/13)
Length of Visible Light 12h 45m
Length of Day
11h 47m
Waxing Gibbous, 91% of the Moon is Illuminated
Mar 13
Waxing Gibbous
Mar 16
Full
Mar 23
Last Quarter
Mar 30
New
Apr 7
First Quarter

Hourly Weather History & Observations

Time (CDT) Temp. Windchill Dew Point Humidity Pressure Visibility Wind Dir Wind Speed Gust Speed Precip Events Conditions
12:20 AM 5.5 °F - -2.6 °F 69% 30.11 in 10.0 mi Calm Calm - N/A   Clear
12:35 AM 4.8 °F - -3.1 °F 70% 30.11 in 10.0 mi Calm Calm - N/A   Clear
12:55 AM 1.2 °F - -4.0 °F 79% 30.10 in 10.0 mi Calm Calm - N/A   Clear
1:15 AM -0.0 °F - -4.4 °F 82% 30.10 in 10.0 mi Calm Calm - N/A   Clear
1:35 AM -0.8 °F - -4.7 °F 83% 30.10 in 10.0 mi Calm Calm - N/A   Clear
1:55 AM -0.4 °F - -4.4 °F 83% 30.09 in 10.0 mi Calm Calm - N/A   Clear
2:15 AM -1.3 °F - -5.3 °F 83% 30.09 in 10.0 mi Calm Calm - N/A   Clear
2:35 AM -1.3 °F - -4.9 °F 85% 30.08 in 10.0 mi Calm Calm - N/A   Clear
2:55 AM -1.8 °F - -5.4 °F 85% 30.08 in 10.0 mi Calm Calm - N/A   Clear
3:15 AM -1.3 °F - -4.2 °F 88% 30.07 in 10.0 mi Calm Calm - N/A   Clear
3:35 AM -1.8 °F - -5.1 °F 86% 30.06 in 10.0 mi Calm Calm - N/A   Clear
3:55 AM -4.2 °F - -8.0 °F 84% 30.06 in 10.0 mi Calm Calm - N/A   Clear
4:15 AM -3.1 °F - -6.5 °F 85% 30.05 in 10.0 mi Calm Calm - N/A   Clear
4:35 AM -3.5 °F - -7.6 °F 82% 30.05 in 10.0 mi Calm Calm - N/A   Clear
4:55 AM -4.2 °F - -8.3 °F 82% 30.05 in 10.0 mi Calm Calm - N/A   Clear
5:15 AM -4.2 °F - -8.5 °F 82% 30.05 in 10.0 mi Calm Calm - N/A   Clear
5:35 AM -4.0 °F - -8.1 °F 82% 30.04 in 10.0 mi Calm Calm - N/A   Clear
5:55 AM -4.4 °F - -8.5 °F 82% 30.04 in 10.0 mi Calm Calm - N/A   Clear
6:15 AM -4.2 °F - -8.5 °F 82% 30.04 in 10.0 mi Calm Calm - N/A   Clear
6:35 AM -4.0 °F - -8.0 °F 83% 30.04 in 10.0 mi Calm Calm - N/A   Mostly Cloudy
7:00 AM -2.6 °F - -6.3 °F 84% 30.04 in 10.0 mi Calm Calm - N/A   Overcast
7:15 AM -1.8 °F - -5.6 °F 84% 30.04 in 10.0 mi Calm Calm - N/A   Overcast
7:35 AM -0.6 °F - -4.7 °F 83% 30.02 in 10.0 mi Calm Calm - N/A   Overcast
7:55 AM 1.4 °F - -2.7 °F 83% 30.02 in 10.0 mi Calm Calm - N/A   Overcast
8:15 AM 5.0 °F - 0.7 °F 82% 30.01 in 10.0 mi Calm Calm - N/A   Overcast
8:35 AM 9.3 °F -0.5 °F 3.2 °F 76% 30.01 in 10.0 mi SW 5.8 mph - N/A   Overcast
8:55 AM 11.8 °F 2.5 °F 4.3 °F 72% 30.00 in 10.0 mi South 5.8 mph - N/A   Overcast
9:15 AM 14.0 °F 6.5 °F 5.5 °F 69% 30.00 in 10.0 mi SSW 4.6 mph - N/A   Overcast
9:35 AM 15.4 °F 5.6 °F 5.7 °F 65% 29.99 in 10.0 mi SSW 6.9 mph - N/A   Overcast
9:55 AM 16.5 °F 6.9 °F 6.4 °F 65% 29.98 in 10.0 mi SW 6.9 mph - N/A   Overcast
10:15 AM 18.3 °F 11.5 °F 6.8 °F 61% 29.97 in 10.0 mi SW 4.6 mph - N/A   Overcast
10:35 AM 19.4 °F 10.4 °F 7.2 °F 59% 29.96 in 10.0 mi SSW 6.9 mph - N/A   Overcast
10:55 AM 20.8 °F 12.1 °F 7.7 °F 57% 29.94 in 10.0 mi SW 6.9 mph - N/A   Overcast
11:15 AM 21.7 °F 11.5 °F 8.6 °F 57% 29.93 in 10.0 mi SSW 9.2 mph - N/A   Overcast
11:35 AM 23.0 °F 13.9 °F 9.1 °F 55% 29.92 in 10.0 mi SSW 8.1 mph - N/A   Overcast
11:55 AM 23.9 °F 12.9 °F 9.5 °F 54% 29.91 in 10.0 mi SSW 11.5 mph - N/A   Overcast
12:15 PM 24.8 °F 16.9 °F 10.4 °F 54% 29.90 in 10.0 mi SSW 6.9 mph 17.3 mph N/A   Overcast
12:35 PM 25.3 °F 14.1 °F 10.9 °F 54% 29.90 in 10.0 mi SSW 12.7 mph - N/A   Overcast
1:00 PM 26.2 °F 16.4 °F 11.3 °F 53% 29.87 in 10.0 mi SSW 10.4 mph - N/A   Overcast
1:10 PM 26.6 °F 16.8 °F 11.7 °F 53% 29.87 in 10.0 mi SW 10.4 mph 16.1 mph N/A   Overcast
1:35 PM 27.1 °F 16.9 °F 13.1 °F 56% 29.85 in 10.0 mi SSW 11.5 mph 18.4 mph N/A   Overcast
1:55 PM 27.1 °F 16.4 °F 13.8 °F 57% 29.85 in 10.0 mi SW 12.7 mph 17.3 mph N/A   Overcast
2:15 PM 27.5 °F 18.6 °F 14.9 °F 59% 29.83 in 10.0 mi SSW 9.2 mph 17.3 mph N/A   Overcast
2:35 PM 28.2 °F 18.3 °F 16.0 °F 60% 29.83 in 10.0 mi SW 11.5 mph 17.3 mph N/A   Overcast
2:55 PM 29.3 °F 19.1 °F 16.9 °F 60% 29.82 in 10.0 mi SW 12.7 mph 17.3 mph N/A   Overcast
3:15 PM 30.7 °F 22.0 °F 18.7 °F 61% 29.81 in 10.0 mi SSW 10.4 mph 16.1 mph N/A   Overcast
3:35 PM 31.5 °F 20.5 °F 19.8 °F 62% 29.81 in 10.0 mi SW 16.1 mph 20.7 mph N/A   Overcast
3:55 PM 32.0 °F 24.2 °F 20.3 °F 62% 29.79 in 10.0 mi SW 9.2 mph 18.4 mph N/A   Overcast
4:15 PM 32.4 °F 23.0 °F 21.0 °F 63% 29.79 in 10.0 mi SSW 12.7 mph 19.6 mph N/A   Overcast
4:35 PM 32.7 °F 23.4 °F 21.2 °F 63% 29.78 in 10.0 mi SSW 12.7 mph 16.1 mph N/A   Overcast
4:55 PM 33.6 °F 25.6 °F 21.7 °F 62% 29.78 in 10.0 mi SW 10.4 mph 16.1 mph N/A   Scattered Clouds
5:15 PM 34.0 °F 25.0 °F 21.9 °F 61% 29.78 in 10.0 mi SSW 12.7 mph 19.6 mph N/A   Clear
5:35 PM 33.8 °F 25.3 °F 22.3 °F 63% 29.77 in 10.0 mi SSW 11.5 mph 19.6 mph N/A   Clear
5:55 PM 34.0 °F 26.0 °F 22.3 °F 62% 29.77 in 10.0 mi SW 10.4 mph - N/A   Clear
6:15 PM 33.8 °F 27.0 °F 22.3 °F 63% 29.76 in 10.0 mi SSW 8.1 mph - N/A   Clear
6:35 PM 33.1 °F 28.7 °F 22.5 °F 65% 29.76 in 10.0 mi SSW 4.6 mph - N/A   Clear
6:55 PM 32.5 °F 27.1 °F 22.6 °F 67% 29.75 in 10.0 mi SSW 5.8 mph - N/A   Clear
7:15 PM 32.2 °F 27.7 °F 23.0 °F 69% 29.75 in 10.0 mi South 4.6 mph - N/A   Clear
7:35 PM 31.5 °F 28.1 °F 23.0 °F 71% 29.75 in 10.0 mi South 3.5 mph - N/A   Clear
7:55 PM 31.1 °F 26.4 °F 23.9 °F 75% 29.74 in 10.0 mi South 4.6 mph - N/A   Clear
8:15 PM 31.5 °F 25.8 °F 24.6 °F 76% 29.74 in 10.0 mi South 5.8 mph - N/A   Clear
8:35 PM 31.6 °F 27.0 °F 24.8 °F 76% 29.73 in 10.0 mi South 4.6 mph - N/A   Clear
8:55 PM 31.6 °F 25.1 °F 25.2 °F 77% 29.73 in 10.0 mi SSW 6.9 mph - N/A   Clear
9:15 PM 32.0 °F 26.4 °F 25.7 °F 78% 29.72 in 10.0 mi South 5.8 mph - N/A   Clear
9:35 PM 32.0 °F 26.4 °F 25.7 °F 78% 29.71 in 10.0 mi South 5.8 mph - N/A   Clear
9:55 PM 31.6 °F 27.0 °F 25.9 °F 79% 29.69 in 10.0 mi South 4.6 mph - N/A   Clear
10:15 PM 31.6 °F 26.0 °F 26.4 °F 81% 29.69 in 10.0 mi South 5.8 mph - N/A   Clear
10:35 PM 32.0 °F 26.4 °F 27.0 °F 82% 29.68 in 10.0 mi South 5.8 mph - N/A   Clear
10:55 PM 32.0 °F 26.4 °F 27.3 °F 83% 29.66 in 10.0 mi South 5.8 mph - N/A   Clear
11:15 PM 32.7 °F 26.4 °F 28.0 °F 83% 29.65 in 10.0 mi SSW 6.9 mph - N/A   Clear
11:35 PM 33.3 °F 26.4 °F 28.8 °F 84% 29.63 in 10.0 mi SSW 8.1 mph - N/A   Clear
11:55 PM 33.4 °F 26.6 °F 29.3 °F 85% 29.62 in 10.0 mi SSW 8.1 mph - N/A   Clear